Time,TemperatureF,DewpointF,PressureIn,WindDirection,WindDirectionDegrees,WindSpeedMPH,WindSpeedGustMPH,Humidity,HourlyPrecipIn,Conditions,Clouds,dailyrainin,SoftwareType,DateUTC
2013-06-22 00:10:00,62.6,42.0,29.97,SW,228,0.0,1.0,47,0.00,,,0.00,weatherlink.com 1.10,2013-06-22 07:10:00,
2013-06-22 00:25:00,62.6,42.0,29.96,SSE,168,0.0,1.0,48,0.00,,,0.00,weatherlink.com 1.10,2013-06-22 07:25:00,
2013-06-22 00:40:00,62.4,43.0,29.97,SW,225,0.0,2.0,49,0.00,,,0.00,weatherlink.com 1.10,2013-06-22 07:40:00,
2013-06-22 00:55:00,62.0,43.0,29.96,SSW,208,0.0,1.0,51,0.00,,,0.00,weatherlink.com 1.10,2013-06-22 07:55:00,
2013-06-22 01:10:00,61.7,44.0,29.96,West,264,1.0,2.0,52,0.00,,,0.00,weatherlink.com 1.10,2013-06-22 08:10:00,
2013-06-22 01:25:00,61.5,44.0,29.96,SE,128,1.0,2.0,54,0.00,,,0.00,weatherlink.com 1.10,2013-06-22 08:25:00,
2013-06-22 01:40:00,61.0,44.0,29.96,SW,225,1.0,2.0,54,0.00,,,0.00,weatherlink.com 1.10,2013-06-22 08:40:00,
2013-06-22 01:55:00,60.6,45.0,29.95,SE,141,0.0,1.0,56,0.00,,,0.00,weatherlink.com 1.10,2013-06-22 08:55:00,
2013-06-22 02:11:00,60.8,45.0,29.95,ESE,117,0.0,2.0,57,0.00,,,0.00,weatherlink.com 1.10,2013-06-22 09:11:00,
2013-06-22 02:26:00,60.5,45.0,29.96,WSW,250,0.0,3.0,57,0.00,,,0.00,weatherlink.com 1.10,2013-06-22 09:26:00,
2013-06-22 02:41:00,59.7,46.0,29.96,SSW,197,0.0,2.0,60,0.00,,,0.00,weatherlink.com 1.10,2013-06-22 09:41:00,
2013-06-22 02:56:00,59.5,45.0,29.96,SSE,162,2.0,2.0,60,0.00,,,0.00,weatherlink.com 1.10,2013-06-22 09:56:00,
2013-06-22 03:11:00,59.3,45.0,29.96,SSE,157,0.0,2.0,60,0.00,,,0.00,weatherlink.com 1.10,2013-06-22 10:11:00,
2013-06-22 03:26:00,59.8,46.0,29.95,SSW,204,0.0,2.0,60,0.00,,,0.00,weatherlink.com 1.10,2013-06-22 10:26:00,
2013-06-22 03:41:00,59.9,45.0,29.95,SE,142,0.0,3.0,58,0.00,,,0.00,weatherlink.com 1.10,2013-06-22 10:41:00,
2013-06-22 03:56:00,60.1,45.0,29.95,SSE,148,2.0,2.0,57,0.00,,,0.00,weatherlink.com 1.10,2013-06-22 10:56:00,
2013-06-22 04:11:00,60.5,45.0,29.95,SSE,158,2.0,3.0,56,0.00,,,0.00,weatherlink.com 1.10,2013-06-22 11:11:00,
2013-06-22 04:26:00,60.5,44.0,29.94,SE,146,1.0,2.0,55,0.00,,,0.00,weatherlink.com 1.10,2013-06-22 11:26:00,
2013-06-22 04:41:00,60.5,44.0,29.94,SSW,197,1.0,3.0,55,0.00,,,0.00,weatherlink.com 1.10,2013-06-22 11:41:00,
2013-06-22 04:56:00,60.1,44.0,29.94,SE,143,2.0,2.0,56,0.00,,,0.00,weatherlink.com 1.10,2013-06-22 11:56:00,
2013-06-22 05:11:00,60.2,44.0,29.95,SSE,148,0.0,2.0,56,0.00,,,0.00,weatherlink.com 1.10,2013-06-22 12:11:00,
2013-06-22 05:26:00,60.8,44.0,29.95,SSE,148,1.0,3.0,55,0.00,,,0.00,weatherlink.com 1.10,2013-06-22 12:26:00,
2013-06-22 05:41:00,60.5,44.0,29.95,SE,143,1.0,3.0,55,0.00,,,0.00,weatherlink.com 1.10,2013-06-22 12:41:00,
2013-06-22 05:56:00,61.2,45.0,29.95,SSW,192,0.0,3.0,55,0.00,,,0.00,weatherlink.com 1.10,2013-06-22 12:56:00,
2013-06-22 06:11:00,61.6,44.0,29.95,ENE,78,0.0,4.0,53,0.00,,,0.00,weatherlink.com 1.10,2013-06-22 13:11:00,
2013-06-22 06:26:00,62.1,45.0,29.96,SSE,161,2.0,4.0,53,0.00,,,0.00,weatherlink.com 1.10,2013-06-22 13:26:00,
2013-06-22 06:41:00,62.9,45.0,29.95,SSW,200,2.0,4.0,52,0.00,,,0.00,weatherlink.com 1.10,2013-06-22 13:41:00,
2013-06-22 06:56:00,64.1,44.0,29.96,ESE,105,1.0,3.0,48,0.00,,,0.00,weatherlink.com 1.10,2013-06-22 13:56:00,
2013-06-22 07:11:00,67.8,44.0,29.96,SE,142,0.0,3.0,43,0.00,,,0.00,weatherlink.com 1.10,2013-06-22 14:11:00,
2013-06-22 07:26:00,69.4,45.0,29.96,SW,232,0.0,3.0,41,0.00,,,0.00,weatherlink.com 1.10,2013-06-22 14:26:00,
2013-06-22 07:41:00,70.9,45.0,29.97,NE,44,2.0,3.0,39,0.00,,,0.00,weatherlink.com 1.10,2013-06-22 14:41:00,
2013-06-22 07:56:00,71.9,44.0,29.96,NNE,15,2.0,3.0,37,0.00,,,0.00,weatherlink.com 1.10,2013-06-22 14:56:00,
2013-06-22 08:11:00,72.5,45.0,29.97,East,81,1.0,4.0,37,0.00,,,0.00,weatherlink.com 1.10,2013-06-22 15:11:00,
2013-06-22 08:26:00,74.8,45.0,29.97,NNE,29,1.0,3.0,35,0.00,,,0.00,weatherlink.com 1.10,2013-06-22 15:26:00,
2013-06-22 08:41:00,75.1,46.0,29.97,NNE,26,0.0,4.0,35,0.00,,,0.00,weatherlink.com 1.10,2013-06-22 15:41:00,
2013-06-22 08:56:00,75.7,45.0,29.97,NE,47,1.0,6.0,34,0.00,,,0.00,weatherlink.com 1.10,2013-06-22 15:56:00,
2013-06-22 09:11:00,77.5,46.0,29.98,SE,127,2.0,4.0,33,0.00,,,0.00,weatherlink.com 1.10,2013-06-22 16:11:00,
2013-06-22 09:26:00,77.6,45.0,29.97,North,359,0.0,7.0,31,0.00,,,0.00,weatherlink.com 1.10,2013-06-22 16:26:00,
2013-06-22 09:41:00,78.7,46.0,29.97,NW,318,1.0,4.0,31,0.00,,,0.00,weatherlink.com 1.10,2013-06-22 16:41:00,
2013-06-22 09:56:00,79.4,44.0,29.97,NE,39,1.0,4.0,29,0.00,,,0.00,weatherlink.com 1.10,2013-06-22 16:56:00,
2013-06-22 10:12:00,80.1,43.0,29.97,ESE,117,1.0,4.0,27,0.00,,,0.00,weatherlink.com 1.10,2013-06-22 17:12:00,
2013-06-22 10:27:00,81.1,45.0,29.97,SW,214,1.0,4.0,28,0.00,,,0.00,weatherlink.com 1.10,2013-06-22 17:27:00,
2013-06-22 10:42:00,83.8,46.0,29.97,ESE,104,2.0,4.0,27,0.00,,,0.00,weatherlink.com 1.10,2013-06-22 17:42:00,
2013-06-22 10:57:00,83.7,45.0,29.97,NNE,12,2.0,4.0,26,0.00,,,0.00,weatherlink.com 1.10,2013-06-22 17:57:00,
2013-06-22 11:12:00,85.1,42.0,29.97,NNE,31,1.0,3.0,22,0.00,,,0.00,weatherlink.com 1.10,2013-06-22 18:12:00,
2013-06-22 11:42:00,87.4,45.0,29.96,ENE,61,1.0,2.0,23,0.00,,,0.00,weatherlink.com 1.10,2013-06-22 18:42:00,
2013-06-22 11:57:00,86.4,43.0,29.96,SE,125,2.0,6.0,22,0.00,,,0.00,weatherlink.com 1.10,2013-06-22 18:57:00,
2013-06-22 12:12:00,86.9,42.0,29.96,NNE,25,2.0,5.0,21,0.00,,,0.00,weatherlink.com 1.10,2013-06-22 19:12:00,
2013-06-22 12:27:00,87.1,43.0,29.95,ESE,111,1.0,4.0,21,0.00,,,0.00,weatherlink.com 1.10,2013-06-22 19:27:00,
2013-06-22 12:42:00,87.6,43.0,29.95,East,100,4.0,6.0,21,0.00,,,0.00,weatherlink.com 1.10,2013-06-22 19:42:00,
2013-06-22 12:57:00,86.9,42.0,29.94,NNW,333,3.0,4.0,21,0.00,,,0.00,weatherlink.com 1.10,2013-06-22 19:57:00,
2013-06-22 13:12:00,87.5,44.0,29.94,East,98,4.0,5.0,22,0.00,,,0.00,weatherlink.com 1.10,2013-06-22 20:12:00,
2013-06-22 13:27:00,87.6,44.0,29.94,SE,129,1.0,5.0,22,0.00,,,0.00,weatherlink.com 1.10,2013-06-22 20:27:00,
2013-06-22 13:42:00,87.6,45.0,29.94,SSE,151,2.0,6.0,23,0.00,,,0.00,weatherlink.com 1.10,2013-06-22 20:42:00,
2013-06-22 13:57:00,87.4,44.0,29.94,SSE,166,3.0,7.0,22,0.00,,,0.00,weatherlink.com 1.10,2013-06-22 20:57:00,
2013-06-22 14:12:00,87.3,44.0,29.93,ENE,77,5.0,7.0,22,0.00,,,0.00,weatherlink.com 1.10,2013-06-22 21:12:00,
2013-06-22 14:27:00,87.6,43.0,29.93,ESE,115,1.0,6.0,21,0.00,,,0.00,weatherlink.com 1.10,2013-06-22 21:27:00,
2013-06-22 14:42:00,88.3,44.0,29.92,SE,138,1.0,5.0,21,0.00,,,0.00,weatherlink.com 1.10,2013-06-22 21:42:00,
2013-06-22 14:57:00,89.4,46.0,29.92,NW,316,2.0,5.0,22,0.00,,,0.00,weatherlink.com 1.10,2013-06-22 21:57:00,
2013-06-22 15:12:00,89.1,44.0,29.91,ESE,107,4.0,6.0,21,0.00,,,0.00,weatherlink.com 1.10,2013-06-22 22:12:00,
2013-06-22 15:27:00,89.5,43.0,29.91,SE,125,2.0,7.0,20,0.00,,,0.00,weatherlink.com 1.10,2013-06-22 22:27:00,
2013-06-22 15:42:00,88.5,44.0,29.90,SSW,204,1.0,8.0,21,0.00,,,0.00,weatherlink.com 1.10,2013-06-22 22:42:00,
2013-06-22 15:57:00,88.7,43.0,29.90,ENE,65,3.0,8.0,20,0.00,,,0.00,weatherlink.com 1.10,2013-06-22 22:57:00,
2013-06-22 16:12:00,88.1,44.0,29.89,SE,135,3.0,7.0,21,0.00,,,0.00,weatherlink.com 1.10,2013-06-22 23:12:00,
2013-06-22 16:27:00,87.9,43.0,29.89,SSE,150,3.0,6.0,21,0.00,,,0.00,weatherlink.com 1.10,2013-06-22 23:27:00,
2013-06-22 16:42:00,86.4,43.0,29.89,SSW,207,1.0,9.0,22,0.00,,,0.00,weatherlink.com 1.10,2013-06-22 23:42:00,
2013-06-22 16:57:00,86.4,43.0,29.88,North,356,1.0,9.0,22,0.00,,,0.00,weatherlink.com 1.10,2013-06-22 23:57:00,
2013-06-22 17:12:00,87.0,44.0,29.88,East,101,1.0,4.0,22,0.00,,,0.00,weatherlink.com 1.10,2013-06-23 00:12:00,
2013-06-22 17:27:00,86.5,46.0,29.88,West,260,1.0,5.0,24,0.00,,,0.00,weatherlink.com 1.10,2013-06-23 00:27:00,
2013-06-22 17:42:00,84.7,46.0,29.88,NNE,29,2.0,7.0,26,0.00,,,0.00,weatherlink.com 1.10,2013-06-23 00:42:00,
2013-06-22 17:57:00,83.2,46.0,29.87,North,8,1.0,8.0,27,0.00,,,0.00,weatherlink.com 1.10,2013-06-23 00:57:00,
2013-06-22 18:12:00,81.9,46.0,29.88,ENE,60,1.0,6.0,28,0.00,,,0.00,weatherlink.com 1.10,2013-06-23 01:12:00,
2013-06-22 18:27:00,80.2,46.0,29.88,NNW,333,1.0,5.0,30,0.00,,,0.00,weatherlink.com 1.10,2013-06-23 01:27:00,
2013-06-22 18:42:00,78.5,46.0,29.88,ENE,58,2.0,8.0,32,0.00,,,0.00,weatherlink.com 1.10,2013-06-23 01:42:00,
2013-06-22 18:57:00,77.2,45.0,29.88,West,274,1.0,9.0,32,0.00,,,0.00,weatherlink.com 1.10,2013-06-23 01:57:00,
2013-06-22 19:12:00,76.0,46.0,29.88,NW,318,1.0,7.0,34,0.00,,,0.00,weatherlink.com 1.10,2013-06-23 02:12:00,
2013-06-22 19:28:00,74.9,45.0,29.88,West,270,0.0,4.0,35,0.00,,,0.00,weatherlink.com 1.10,2013-06-23 02:28:00,
2013-06-22 19:43:00,73.9,45.0,29.88,West,281,0.0,5.0,35,0.00,,,0.00,weatherlink.com 1.10,2013-06-23 02:43:00,
2013-06-22 19:58:00,72.8,44.0,29.88,East,98,1.0,5.0,36,0.00,,,0.00,weatherlink.com 1.10,2013-06-23 02:58:00,
2013-06-22 20:13:00,71.9,44.0,29.88,NNW,335,0.0,2.0,37,0.00,,,0.00,weatherlink.com 1.10,2013-06-23 03:13:00,
2013-06-22 20:28:00,70.9,44.0,29.88,ESE,117,4.0,6.0,38,0.00,,,0.00,weatherlink.com 1.10,2013-06-23 03:28:00,
2013-06-22 20:43:00,69.8,44.0,29.88,ESE,104,0.0,2.0,39,0.00,,,0.00,weatherlink.com 1.10,2013-06-23 03:43:00,
2013-06-22 20:58:00,69.0,44.0,29.88,SSE,158,0.0,2.0,40,0.00,,,0.00,weatherlink.com 1.10,2013-06-23 03:58:00,
2013-06-22 21:13:00,68.4,44.0,29.88,SE,137,1.0,4.0,41,0.00,,,0.00,weatherlink.com 1.10,2013-06-23 04:13:00,
2013-06-22 21:28:00,67.6,44.0,29.88,East,100,0.0,3.0,42,0.00,,,0.00,weatherlink.com 1.10,2013-06-23 04:28:00,
2013-06-22 21:43:00,67.0,44.0,29.88,SSE,155,3.0,3.0,44,0.00,,,0.00,weatherlink.com 1.10,2013-06-23 04:43:00,
2013-06-22 21:58:00,67.1,44.0,29.88,SSW,212,2.0,4.0,44,0.00,,,0.00,weatherlink.com 1.10,2013-06-23 04:58:00,
2013-06-22 22:13:00,66.8,45.0,29.89,SE,146,1.0,12.0,45,0.00,,,0.00,weatherlink.com 1.10,2013-06-23 05:13:00,
2013-06-22 22:28:00,66.0,44.0,29.88,SE,141,2.0,3.0,46,0.00,,,0.00,weatherlink.com 1.10,2013-06-23 05:28:00,
2013-06-22 22:43:00,65.6,45.0,29.88,SSW,198,1.0,2.0,47,0.00,,,0.00,weatherlink.com 1.10,2013-06-23 05:43:00,
2013-06-22 22:58:00,65.1,45.0,29.87,ENE,61,2.0,4.0,48,0.00,,,0.00,weatherlink.com 1.10,2013-06-23 05:58:00,
2013-06-22 23:13:00,64.2,45.0,29.87,South,170,0.0,2.0,50,0.00,,,0.00,weatherlink.com 1.10,2013-06-23 06:13:00,
2013-06-22 23:28:00,63.4,45.0,29.87,SSW,201,1.0,1.0,51,0.00,,,0.00,weatherlink.com 1.10,2013-06-23 06:28:00,
2013-06-22 23:43:00,63.2,45.0,29.86,SW,229,1.0,1.0,51,0.00,,,0.00,weatherlink.com 1.10,2013-06-23 06:43:00,
2013-06-22 23:58:00,62.8,44.0,29.86,SSE,167,0.0,2.0,51,0.00,,,0.00,weatherlink.com 1.10,2013-06-23 06:58:00,